SL-4 R/B (47619 NORAD) Tracking and Keplerian Element Data

This shows tracking and keplerian element data for the satellite.

Feedback or suggestion? Click here.




ElementValue
Catalog47619
NameSL-4 R/B
Epoch Orbit39
Epoch Day48.78367193
Epoch Year2021
RAAN212.2014
Inclination51.6513
Eccentricity0.0005272
Argument of Perigee69.3925
Mean Anonmoly67.1662
Mean Motion16.46281604
Decay Rate0.11583269
L11 47619U 21011B 21048.78367193 .11583269 12605-4 25967-3 0 9996
L22 47619 51.6513 212.2014 0005272 69.3925 67.1662 16.46281604 390

Live tracking and technical data element details for SL-4 R/B (NORAD 47619). SL-4 R/B can be tracked NOW for your location showing map with azimuth and elevation plus other details from your city location.

Track the satellite on the map from your city or location and see movement details for azimuth, elevation, latitude, longitude, range, height, and movement on the map or in text.







IsCatalogInMostPopularTable: catalog: 47619, numindb: 19
Update: records affected: 1



GetName: 47619 SL-4 R/B

Hit Count: updated at: Tue, 13 Apr 2021 05:19:50 GMT